Regional Weather Roundup
Issued by NWS

Home | Current Version | Previous Version | Text Only | Print | Product List | Glossary On
Versions: 1 2 3 4 5 6 7 8 9 10 11 12 13 14 15 16 17 18 19 20 21 22 23 24 25 26 27 28 29 30 31 32 33 34 35 36 37 38 39 40 41 42 43 44 45 46 47 48 49 50
685
ASUS44 KMEG 100910
RWRTN
TENNESSEE HOURLY STATE WEATHER ROUNDUP
NATIONAL WEATHER SERVICE MEMPHIS TN
300 AM CST WED FEB 10 2016

TNZ002-004-019-021-049-052-054-088>092-101000-
WEST TENNESSEE

CITY           SKY/WX    TMP DP  RH WIND       PRES   REMARKS
MEMPHIS INTL   CLEAR     27  12  53 NW12      30.20R WCI  17
NWS MEMPHIS      N/A     26 N/A N/A MISG        N/A
JACKSON        CLEAR     23  12  62 NW9       30.17R WCI  13
DYERSBURG      CLEAR     23   9  54 NW9       30.20S WCI  13
UNION CITY     CLEAR     21  10  63 NW9       30.14R WCI  11
PARIS          CLEAR     18   9  68 W5        30.11S WCI  11
$$

TNZ008-025-027-028-033-062-065-066-101000-
NORTH MIDDLE TENNESSEE

CITY           SKY/WX    TMP DP  RH WIND       PRES   REMARKS
NASHVILLE      CLOUDY    22  15  75 W7        30.10R WCI  13
CLARKSVILLE    LGT SNOW  20  16  84 NW8       30.10R FOG     WCI  10
SMYRNA         CLOUDY    21  17  84 W7        30.12R WCI  12
COOKEVILLE     CLOUDY    19  12  73 NW5       30.03F WCI  13
CROSSVILLE     CLOUDY    15   7  70 W8        29.97R WCI   4
$$

TNZ061-075-076-078-094-096-097-101000-
SOUTH MIDDLE TENNESSEE

CITY           SKY/WX    TMP DP  RH WIND       PRES   REMARKS
TULLAHOMA      CLOUDY    18  18 100 CALM      30.07R
WINCHESTER     CLOUDY    19  16  86 W5        30.08R WCI  13
MCMINNVILLE    MOCLDY    18  12  79 W6        30.06R WCI   9
COLUMBIA       CLOUDY    21  18  86 W3        30.09R
SHELBYVILLE    CLOUDY    21  19  93 W3        30.11R
$$

TNZ017-018-042-046-047-101000-
NORTHEAST TENNESSEE

CITY           SKY/WX    TMP DP  RH WIND       PRES   REMARKS
TRI CITIES     CLOUDY    20  12  71 W13       29.90R WCI   7
$$

TNZ012-013-036-069-073-074-101000-
CENTRAL EAST TENNESSEE

CITY           SKY/WX    TMP DP  RH WIND       PRES   REMARKS
KNOXVILLE      CLOUDY    21  10  62 W13       30.00S WCI   9
OAK RIDGE      CLOUDY    21   9  59 W7        30.02S WCI  12
GATLINBURG     CLOUDY    19   7  58 W7        29.99R WCI  10
$$

TNZ083-085-099-101000-
SOUTHEAST TENNESSEE

CITY           SKY/WX    TMP DP  RH WIND       PRES   REMARKS
CHATTANOOGA    CLOUDY    23   8  52 W9        30.09R WCI  13
$$

SKY/WX REPORTED AS FAIR MEANS FEW OR NO CLOUDS BELOW
12 THOUSAND FEET.





USA.gov is the U.S. government's official web portal to all federal, state and local government web resources and services.